,vessel wall above bottom head(TE-2-3-69H2),the temperature change rate per hour,the temperature change rate per day,vessel wall above bottom head(TE-2-3-69H3),the temperature change rate per hour,the temperature change rate per day,vessel bottom above skirt jot(TE-2-3-69F2),the temperature change rate per hour,the temperature change rate per day,vessel bottom above skirt jot(TE-2-3-69F3),the temperature change rate per hour,the temperature change rate per day,Volume of water injection to the reactor�iFDW�j,Volume of water injection to the reactor�i�b�r�j,"note"
Unit,��,��/h,��/d,��,��/h,��/d,��,��/h,��/d,��,��/h,��/d,m3/h,m3/h,""
2011/12/19 0:00,60.6 ,,,59.9 ,,,61.9 ,,,61.1 ,,,,,""
2011/12/19 1:00,60.3 ,-0.3 ,-0.5 ,59.6 ,-0.3 ,-0.7 ,61.6 ,-0.3 ,-0.6 ,60.9 ,-0.2 ,-0.7 ,2.7 ,6.0 ,""
2011/12/19 2:00,60.3 ,0.0 ,-0.4 ,59.6 ,0.0 ,-0.7 ,61.5 ,-0.1 ,-0.7 ,60.9 ,0.0 ,-0.7 ,2.7 ,6.0 ,""
2011/12/19 3:00,60.3 ,0.0 ,-0.3 ,59.6 ,0.0 ,-0.6 ,61.6 ,0.1 ,-0.6 ,60.9 ,0.0 ,-0.6 ,2.7 ,6.0 ,""
2011/12/19 4:00,60.0 ,-0.3 ,-0.4 ,59.6 ,0.0 ,-0.5 ,61.6 ,0.0 ,-0.5 ,60.9 ,0.0 ,-0.6 ,2.7 ,6.0 ,""
2011/12/19 5:00,60.0 ,0.0 ,-0.9 ,59.5 ,-0.1 ,-0.6 ,61.4 ,-0.2 ,-0.7 ,60.8 ,-0.1 ,-0.7 ,2.7 ,6.0 ,""
2011/12/19 6:00,60.0 ,0.0 ,-0.7 ,59.4 ,-0.1 ,-0.7 ,61.4 ,0.0 ,-0.7 ,60.8 ,0.0 ,-0.7 ,2.7 ,6.0 ,""
2011/12/19 7:00,60.3 ,0.3 ,-0.3 ,59.5 ,0.1 ,-0.6 ,61.4 ,0.0 ,-0.6 ,60.8 ,0.0 ,-0.6 ,2.7 ,6.0 ,""
2011/12/19 8:00,60.0 ,-0.3 ,-0.6 ,59.5 ,0.0 ,-0.6 ,61.4 ,0.0 ,-0.7 ,60.8 ,0.0 ,-0.6 ,2.7 ,6.0 ,""
2011/12/19 9:00,60.0 ,0.0 ,-0.4 ,59.4 ,-0.1 ,-0.6 ,61.4 ,0.0 ,-0.6 ,60.7 ,-0.1 ,-0.7 ,2.7 ,6.0 ,""
2011/12/19 10:00,59.9 ,-0.1 ,-0.3 ,59.4 ,0.0 ,-0.6 ,61.3 ,-0.1 ,-0.7 ,62.0 ,1.3 ,0.7 ,0.5 ,7.0 ,""
2011/12/19 11:00,59.7 ,-0.2 ,-1.0 ,59.3 ,-0.1 ,-0.6 ,61.3 ,0.0 ,-0.6 ,62.0 ,0.0 ,0.7 ,3.0 ,6.0 ,""
2011/12/19 12:00,59.9 ,0.2 ,-0.6 ,59.2 ,-0.1 ,-0.8 ,61.3 ,0.0 ,-0.6 ,61.8 ,-0.2 ,0.5 ,3.0 ,6.0 ,""
2011/12/19 13:00,59.8 ,-0.1 ,-0.7 ,59.2 ,0.0 ,-0.8 ,61.3 ,0.0 ,-0.6 ,61.8 ,0.0 ,0.5 ,3.0 ,6.0 ,""
2011/12/19 14:00,59.8 ,0.0 ,-0.7 ,59.2 ,0.0 ,-0.8 ,61.2 ,-0.1 ,-0.7 ,61.7 ,-0.1 ,0.4 ,3.0 ,6.0 ,""
2011/12/19 15:00,59.7 ,-0.1 ,-0.6 ,59.1 ,-0.1 ,-1.0 ,61.1 ,-0.1 ,-1.0 ,61.6 ,-0.1 ,0.3 ,3.0 ,6.0 ,""
2011/12/19 16:00,59.6 ,-0.1 ,-0.6 ,59.2 ,0.1 ,-0.7 ,61.1 ,0.0 ,-0.7 ,61.6 ,0.0 ,0.4 ,2.9 ,6.0 ,""
2011/12/19 17:00,59.6 ,0.0 ,-0.9 ,59.1 ,-0.1 ,-0.8 ,61.0 ,-0.2 ,-0.9 ,61.6 ,0.0 ,0.4 ,3.0 ,6.0 ,""
2011/12/19 18:00,59.6 ,0.0 ,-0.9 ,59.0 ,-0.1 ,-0.9 ,61.0 ,0.0 ,-0.8 ,61.5 ,-0.1 ,0.3 ,3.0 ,6.0 ,""
2011/12/19 19:00,59.7 ,0.1 ,-0.7 ,59.0 ,0.0 ,-0.9 ,60.9 ,-0.1 ,-0.9 ,61.5 ,0.0 ,0.3 ,3.0 ,6.0 ,""
2011/12/19 20:00,59.5 ,-0.2 ,-0.9 ,59.0 ,0.0 ,-0.9 ,61.0 ,0.1 ,-0.8 ,61.5 ,0.0 ,0.4 ,3.0 ,6.0 ,""
2011/12/19 21:00,59.3 ,-0.2 ,-1.1 ,58.8 ,-0.2 ,-1.1 ,60.8 ,-0.2 ,-1.0 ,61.2 ,-0.3 ,0.0 ,3.0 ,6.0 ,""
2011/12/19 22:00,59.3 ,0.0 ,-0.8 ,58.8 ,0.0 ,-1.0 ,60.8 ,0.0 ,-0.9 ,61.2 ,0.0 ,0.2 ,3.0 ,6.0 ,""
2011/12/19 23:00,59.2 ,-0.1 ,-1.0 ,58.7 ,-0.1 ,-1.2 ,60.7 ,-0.1 ,-1.1 ,61.2 ,0.0 ,0.1 ,3.0 ,6.0 ,""
2011/12/20 0:00,58.9 ,-0.3 ,-1.7 ,58.6 ,-0.1 ,-1.3 ,60.6 ,-0.1 ,-1.3 ,61.1 ,-0.1 ,0.0 ,2.9 ,6.0 ,""
2011/12/20 1:00,59.2 ,0.3 ,-1.1 ,58.6 ,0.0 ,-1.0 ,60.6 ,0.0 ,-1.0 ,61.1 ,0.0 ,0.2 ,2.9 ,6.0 ,""
2011/12/20 2:00,59.1 ,-0.1 ,-1.2 ,58.5 ,-0.1 ,-1.1 ,60.5 ,-0.1 ,-1.0 ,61.0 ,-0.1 ,0.1 ,2.9 ,6.0 ,""
2011/12/20 3:00,59.0 ,-0.1 ,-1.3 ,58.4 ,-0.1 ,-1.2 ,60.4 ,-0.1 ,-1.2 ,60.9 ,-0.1 ,0.0 ,2.9 ,6.0 ,""
2011/12/20 4:00,59.0 ,0.0 ,-1.0 ,58.3 ,-0.1 ,-1.3 ,60.3 ,-0.1 ,-1.3 ,60.9 ,0.0 ,0.0 ,2.9 ,6.0 ,""
2011/12/20 5:00,58.7 ,-0.3 ,-1.3 ,58.3 ,0.0 ,-1.2 ,60.3 ,0.0 ,-1.1 ,60.8 ,-0.1 ,0.0 ,2.9 ,6.0 ,""
2011/12/20 6:00,58.6 ,-0.1 ,-1.4 ,58.2 ,-0.1 ,-1.2 ,60.2 ,-0.1 ,-1.2 ,60.8 ,0.0 ,0.0 ,2.9 ,6.0 ,""
2011/12/20 7:00,58.5 ,-0.1 ,-1.8 ,58.1 ,-0.1 ,-1.4 ,60.1 ,-0.1 ,-1.3 ,60.7 ,-0.1 ,-0.1 ,2.9 ,6.0 ,""
2011/12/20 8:00,59.0 ,0.5 ,-1.0 ,58.1 ,0.0 ,-1.4 ,60.1 ,0.0 ,-1.3 ,60.7 ,0.0 ,-0.1 ,2.9 ,6.0 ,""
2011/12/20 9:00,58.7 ,-0.3 ,-1.3 ,58.0 ,-0.1 ,-1.4 ,60.0 ,-0.1 ,-1.4 ,60.6 ,-0.1 ,-0.1 ,2.9 ,6.0 ,""
2011/12/20 10:00,58.7 ,0.0 ,-1.2 ,58.0 ,0.0 ,-1.4 ,60.0 ,0.0 ,-1.3 ,60.6 ,0.0 ,-1.4 ,2.9 ,6.0 ,""
2011/12/20 11:00,58.6 ,-0.1 ,-1.1 ,57.9 ,-0.1 ,-1.4 ,59.9 ,-0.1 ,-1.4 ,60.6 ,0.0 ,-1.4 ,2.8 ,6.0 ,""
2011/12/20 12:00,58.3 ,-0.3 ,-1.6 ,57.9 ,0.0 ,-1.3 ,59.9 ,0.0 ,-1.4 ,60.6 ,0.0 ,-0.2 ,2.8 ,6.0 ,""
2011/12/20 13:00,58.4 ,0.1 ,-1.4 ,57.8 ,-0.1 ,-1.4 ,59.9 ,0.0 ,-1.4 ,60.5 ,-0.1 ,-1.1 ,2.8 ,6.0 ,""
2011/12/20 14:00,58.6 ,0.2 ,-1.1 ,57.8 ,0.0 ,-1.4 ,59.8 ,-0.1 ,-1.4 ,60.5 ,0.0 ,-1.1 ,2.8 ,6.0 ,""
2011/12/20 15:00,58.5 ,-0.1 ,-1.2 ,57.8 ,0.0 ,-1.3 ,59.9 ,0.1 ,-1.2 ,60.5 ,0.0 ,-1.1 ,2.8 ,6.0 ,""
2011/12/20 16:00,58.4 ,-0.1 ,-1.2 ,57.8 ,0.0 ,-1.4 ,59.8 ,-0.1 ,-1.3 ,60.5 ,0.0 ,-1.1 ,2.8 ,6.0 ,""
2011/12/20 17:00,58.4 ,0.0 ,-1.2 ,57.8 ,0.0 ,-1.3 ,59.7 ,-0.1 ,-1.3 ,60.5 ,0.0 ,-1.1 ,2.8 ,6.0 ,""
2011/12/20 18:00,58.3 ,-0.1 ,-1.2 ,57.7 ,-0.1 ,-1.3 ,59.7 ,0.0 ,-1.3 ,60.4 ,-0.1 ,-1.1 ,2.8 ,6.0 ,""
2011/12/20 19:00,58.0 ,-0.3 ,-1.7 ,57.7 ,0.0 ,-1.3 ,59.7 ,0.0 ,-1.2 ,60.4 ,0.0 ,-1.1 ,2.8 ,6.0 ,""
2011/12/20 20:00,58.4 ,0.4 ,-1.2 ,57.6 ,-0.1 ,-1.4 ,59.6 ,-0.1 ,-1.4 ,60.4 ,0.0 ,-1.1 ,2.8 ,6.0 ,""
2011/12/20 21:00,58.3 ,-0.1 ,-1.0 ,57.6 ,0.0 ,-1.2 ,59.6 ,0.0 ,-1.2 ,60.4 ,0.0 ,-0.8 ,2.8 ,6.0 ,""
2011/12/20 22:00,58.2 ,-0.1 ,-1.1 ,57.5 ,-0.1 ,-1.3 ,59.5 ,-0.1 ,-1.3 ,60.3 ,-0.1 ,-0.9 ,2.8 ,6.0 ,""
2011/12/20 23:00,58.2 ,0.0 ,-1.0 ,57.4 ,-0.1 ,-1.3 ,59.5 ,0.0 ,-1.2 ,60.3 ,0.0 ,-0.9 ,2.8 ,6.0 ,""
2011/12/21 0:00,58.1 ,-0.1 ,-0.8 ,57.4 ,0.0 ,-1.2 ,59.5 ,0.0 ,-1.1 ,60.2 ,-0.1 ,-0.9 ,2.8 ,6.0 ,""
2011/12/21 1:00,58.0 ,-0.1 ,-1.2 ,57.3 ,-0.1 ,-1.3 ,59.4 ,-0.1 ,-1.2 ,60.1 ,-0.1 ,-1.0 ,2.8 ,6.0 ,""
2011/12/21 2:00,58.3 ,0.3 ,-0.8 ,57.3 ,0.0 ,-1.2 ,59.4 ,0.0 ,-1.1 ,60.1 ,0.0 ,-0.9 ,2.8 ,6.0 ,""
2011/12/21 3:00,58.2 ,-0.1 ,-0.8 ,57.2 ,-0.1 ,-1.2 ,59.3 ,-0.1 ,-1.1 ,60.0 ,-0.1 ,-0.9 ,2.8 ,6.0 ,""
2011/12/21 4:00,58.1 ,-0.1 ,-0.9 ,57.2 ,0.0 ,-1.1 ,59.3 ,0.0 ,-1.0 ,60.0 ,0.0 ,-0.9 ,2.8 ,6.0 ,""
2011/12/21 5:00,58.0 ,-0.1 ,-0.7 ,57.2 ,0.0 ,-1.1 ,59.2 ,-0.1 ,-1.1 ,60.0 ,0.0 ,-0.8 ,2.8 ,6.0 ,""
2011/12/21 6:00,57.9 ,-0.1 ,-0.7 ,57.2 ,0.0 ,-1.0 ,59.3 ,0.1 ,-0.9 ,60.0 ,0.0 ,-0.8 ,2.8 ,6.0 ,""
2011/12/21 7:00,57.5 ,-0.4 ,-1.0 ,57.0 ,-0.2 ,-1.1 ,59.2 ,-0.1 ,-0.9 ,59.8 ,-0.2 ,-0.9 ,2.8 ,6.0 ,""
2011/12/21 8:00,57.9 ,0.4 ,-1.1 ,57.0 ,0.0 ,-1.1 ,59.1 ,-0.1 ,-1.0 ,59.8 ,0.0 ,-0.9 ,2.8 ,6.0 ,""
2011/12/21 9:00,57.9 ,0.0 ,-0.8 ,56.9 ,-0.1 ,-1.1 ,59.0 ,-0.1 ,-1.0 ,59.8 ,0.0 ,-0.8 ,2.8 ,6.0 ,""
2011/12/21 10:00,57.7 ,-0.2 ,-1.0 ,57.0 ,0.1 ,-1.0 ,59.0 ,0.0 ,-1.0 ,59.8 ,0.0 ,-0.8 ,2.8 ,6.0 ,""
2011/12/21 11:00,57.7 ,0.0 ,-0.9 ,56.9 ,-0.1 ,-1.0 ,59.0 ,0.0 ,-0.9 ,59.8 ,0.0 ,-0.8 ,2.8 ,6.0 ,""
2011/12/21 12:00,57.7 ,0.0 ,-0.6 ,56.9 ,0.0 ,-1.0 ,58.9 ,-0.1 ,-1.0 ,59.7 ,-0.1 ,-0.9 ,2.8 ,6.0 ,""
2011/12/21 13:00,57.4 ,-0.3 ,-1.0 ,56.9 ,0.0 ,-0.9 ,58.9 ,0.0 ,-1.0 ,59.7 ,0.0 ,-0.8 ,2.8 ,6.0 ,""
2011/12/21 14:00,57.4 ,0.0 ,-1.2 ,56.9 ,0.0 ,-0.9 ,58.9 ,0.0 ,-0.9 ,59.7 ,0.0 ,-0.8 ,2.8 ,6.0 ,""
2011/12/21 15:00,57.9 ,0.5 ,-0.6 ,56.9 ,0.0 ,-0.9 ,58.9 ,0.0 ,-1.0 ,59.8 ,0.1 ,-0.7 ,2.8 ,6.0 ,""
2011/12/21 16:00,57.9 ,0.0 ,-0.5 ,56.9 ,0.0 ,-0.9 ,58.9 ,0.0 ,-0.9 ,59.8 ,0.0 ,-0.7 ,2.8 ,6.0 ,""
2011/12/21 17:00,57.7 ,-0.2 ,-0.7 ,56.9 ,0.0 ,-0.9 ,58.9 ,0.0 ,-0.8 ,59.8 ,0.0 ,-0.7 ,2.8 ,6.0 ,""
2011/12/21 18:00,57.6 ,-0.1 ,-0.7 ,56.9 ,0.0 ,-0.8 ,58.9 ,0.0 ,-0.8 ,59.8 ,0.0 ,-0.6 ,2.9 ,6.0 ,""
2011/12/21 19:00,57.4 ,-0.2 ,-0.6 ,56.9 ,0.0 ,-0.8 ,58.9 ,0.0 ,-0.8 ,59.8 ,0.0 ,-0.6 ,2.9 ,6.0 ,""
2011/12/21 20:00,57.4 ,0.0 ,-1.0 ,56.9 ,0.0 ,-0.7 ,58.9 ,0.0 ,-0.7 ,59.8 ,0.0 ,-0.6 ,2.8 ,6.0 ,""
2011/12/21 21:00,57.8 ,0.4 ,-0.5 ,56.8 ,-0.1 ,-0.8 ,58.8 ,-0.1 ,-0.8 ,59.8 ,0.0 ,-0.6 ,2.8 ,6.0 ,""
2011/12/21 22:00,57.6 ,-0.2 ,-0.6 ,56.8 ,0.0 ,-0.7 ,58.8 ,0.0 ,-0.7 ,59.8 ,0.0 ,-0.5 ,2.8 ,6.0 ,""
2011/12/21 23:00,57.5 ,-0.1 ,-0.7 ,56.8 ,0.0 ,-0.6 ,58.8 ,0.0 ,-0.7 ,59.8 ,0.0 ,-0.5 ,2.8 ,6.0 ,""
2011/12/22 0:00,57.6 ,0.1 ,-0.5 ,56.8 ,0.0 ,-0.6 ,58.7 ,-0.1 ,-0.8 ,59.8 ,0.0 ,-0.4 ,2.7 ,6.1 ,""
2011/12/22 1:00,57.4 ,-0.2 ,-0.6 ,56.8 ,0.0 ,-0.5 ,58.7 ,0.0 ,-0.7 ,59.8 ,0.0 ,-0.3 ,2.7 ,6.1 ,""
2011/12/22 2:00,57.4 ,0.0 ,-0.9 ,56.8 ,0.0 ,-0.5 ,58.7 ,0.0 ,-0.7 ,59.8 ,0.0 ,-0.3 ,2.7 ,6.1 ,""
2011/12/22 3:00,57.3 ,-0.1 ,-0.9 ,56.7 ,-0.1 ,-0.5 ,58.7 ,0.0 ,-0.6 ,59.7 ,-0.1 ,-0.3 ,2.7 ,6.1 ,""
2011/12/22 4:00,57.7 ,0.4 ,-0.4 ,56.7 ,0.0 ,-0.5 ,58.6 ,-0.1 ,-0.7 ,59.7 ,0.0 ,-0.3 ,2.7 ,6.1 ,""
2011/12/22 5:00,57.4 ,-0.3 ,-0.6 ,56.6 ,-0.1 ,-0.6 ,58.6 ,0.0 ,-0.6 ,59.7 ,0.0 ,-0.3 ,2.7 ,6.1 ,""
2011/12/22 6:00,57.4 ,0.0 ,-0.5 ,56.7 ,0.1 ,-0.5 ,58.6 ,0.0 ,-0.7 ,59.7 ,0.0 ,-0.3 ,2.7 ,6.1 ,""
2011/12/22 7:00,57.4 ,0.0 ,-0.1 ,56.6 ,-0.1 ,-0.4 ,58.6 ,0.0 ,-0.6 ,59.7 ,0.0 ,-0.1 ,2.7 ,6.1 ,""
2011/12/22 8:00,57.1 ,-0.3 ,-0.8 ,56.6 ,0.0 ,-0.4 ,58.6 ,0.0 ,-0.5 ,59.6 ,-0.1 ,-0.2 ,2.7 ,6.1 ,""
2011/12/22 9:00,57.2 ,0.1 ,-0.7 ,56.5 ,-0.1 ,-0.4 ,58.6 ,0.0 ,-0.4 ,59.6 ,0.0 ,-0.2 ,2.7 ,6.1 ,""
2011/12/22 10:00,57.6 ,0.4 ,-0.1 ,56.6 ,0.1 ,-0.4 ,58.5 ,-0.1 ,-0.5 ,59.6 ,0.0 ,-0.2 ,2.7 ,6.1 ,""
2011/12/22 11:00,57.4 ,-0.2 ,-0.3 ,56.6 ,0.0 ,-0.3 ,58.5 ,0.0 ,-0.5 ,59.6 ,0.0 ,-0.2 ,2.7 ,6.0 ,""
2011/12/22 12:00,57.3 ,-0.1 ,-0.4 ,56.5 ,-0.1 ,-0.4 ,58.5 ,0.0 ,-0.4 ,59.6 ,0.0 ,-0.1 ,2.7 ,6.0 ,""
2011/12/22 13:00,57.3 ,0.0 ,-0.1 ,56.6 ,0.1 ,-0.3 ,58.5 ,0.0 ,-0.4 ,59.6 ,0.0 ,-0.1 ,2.7 ,6.0 ,""
2011/12/22 14:00,57.0 ,-0.3 ,-0.4 ,56.5 ,-0.1 ,-0.4 ,58.4 ,-0.1 ,-0.5 ,59.5 ,-0.1 ,-0.2 ,2.7 ,6.0 ,""
2011/12/22 15:00,57.0 ,0.0 ,-0.9 ,56.5 ,0.0 ,-0.4 ,58.4 ,0.0 ,-0.5 ,59.7 ,0.2 ,-0.1 ,2.7 ,6.0 ,""
2011/12/22 16:00,57.1 ,0.1 ,-0.8 ,56.5 ,0.0 ,-0.4 ,58.5 ,0.1 ,-0.4 ,59.7 ,0.0 ,-0.1 ,2.8 ,6.0 ,""
2011/12/22 17:00,57.3 ,0.2 ,-0.4 ,56.5 ,0.0 ,-0.4 ,58.5 ,0.0 ,-0.4 ,59.8 ,0.1 ,0.0 ,2.7 ,6.0 ,""
2011/12/22 18:00,57.3 ,0.0 ,-0.3 ,56.5 ,0.0 ,-0.4 ,58.5 ,0.0 ,-0.4 ,59.8 ,0.0 ,0.0 ,2.8 ,6.0 ,""
2011/12/22 19:00,57.3 ,0.0 ,-0.1 ,56.5 ,0.0 ,-0.4 ,58.4 ,-0.1 ,-0.5 ,59.7 ,-0.1 ,-0.1 ,2.8 ,6.0 ,""
2011/12/22 20:00,57.0 ,-0.3 ,-0.4 ,56.5 ,0.0 ,-0.4 ,58.4 ,0.0 ,-0.5 ,59.7 ,0.0 ,-0.1 ,2.8 ,6.0 ,""
2011/12/22 21:00,57.3 ,0.3 ,-0.5 ,56.6 ,0.1 ,-0.2 ,58.5 ,0.1 ,-0.3 ,59.8 ,0.1 ,0.0 ,2.8 ,6.1 ,""
2011/12/22 22:00,57.3 ,0.0 ,-0.3 ,56.5 ,-0.1 ,-0.3 ,58.5 ,0.0 ,-0.3 ,59.8 ,0.0 ,0.0 ,2.8 ,6.1 ,""
2011/12/22 23:00,57.3 ,0.0 ,-0.2 ,56.5 ,0.0 ,-0.3 ,58.3 ,-0.2 ,-0.5 ,59.9 ,0.1 ,0.1 ,2.6 ,6.0 ,""
2011/12/23 0:00,57.2 ,-0.1 ,-0.4 ,56.4 ,-0.1 ,-0.4 ,58.3 ,0.0 ,-0.4 ,60.0 ,0.1 ,0.2 ,2.6 ,6.0 ,""
2011/12/23 1:00,57.2 ,0.0 ,-0.2 ,56.5 ,0.1 ,-0.3 ,58.5 ,0.2 ,-0.2 ,60.0 ,0.0 ,0.2 ,2.6 ,6.0 ,""
2011/12/23 2:00,57.1 ,-0.1 ,-0.3 ,56.4 ,-0.1 ,-0.4 ,58.3 ,-0.2 ,-0.4 ,59.9 ,-0.1 ,0.1 ,2.6 ,6.0 ,""
2011/12/23 3:00,56.9 ,-0.2 ,-0.4 ,56.5 ,0.1 ,-0.2 ,58.4 ,0.1 ,-0.3 ,59.9 ,0.0 ,0.2 ,2.6 ,6.0 ,""
2011/12/23 4:00,57.3 ,0.4 ,-0.4 ,56.4 ,-0.1 ,-0.3 ,58.3 ,-0.1 ,-0.3 ,59.9 ,0.0 ,0.2 ,2.6 ,6.0 ,""
2011/12/23 5:00,57.4 ,0.1 ,0.0 ,56.4 ,0.0 ,-0.2 ,58.3 ,0.0 ,-0.3 ,60.0 ,0.1 ,0.3 ,2.6 ,6.0 ,""
2011/12/23 6:00,57.3 ,-0.1 ,-0.1 ,56.4 ,0.0 ,-0.3 ,58.4 ,0.1 ,-0.2 ,60.0 ,0.0 ,0.3 ,2.6 ,6.0 ,""
2011/12/23 7:00,57.2 ,-0.1 ,-0.2 ,56.4 ,0.0 ,-0.2 ,58.4 ,0.0 ,-0.2 ,60.0 ,0.0 ,0.3 ,2.6 ,6.0 ,""
2011/12/23 8:00,57.2 ,0.0 ,0.1 ,56.4 ,0.0 ,-0.2 ,58.3 ,-0.1 ,-0.3 ,59.9 ,-0.1 ,0.3 ,2.6 ,6.0 ,""
2011/12/23 9:00,57.0 ,-0.2 ,-0.2 ,56.6 ,0.2 ,0.1 ,58.5 ,0.2 ,-0.1 ,60.0 ,0.1 ,0.4 ,2.5 ,6.0 ,""
2011/12/23 10:00,56.9 ,-0.1 ,-0.7 ,56.4 ,-0.2 ,-0.2 ,58.4 ,-0.1 ,-0.1 ,60.0 ,0.0 ,0.4 ,2.5 ,6.0 ,""
2011/12/23 11:00,57.2 ,0.3 ,-0.2 ,56.5 ,0.1 ,-0.1 ,58.5 ,0.1 ,0.0 ,60.0 ,0.0 ,0.4 ,3.0 ,6.0 ,""
2011/12/23 12:00,57.2 ,0.0 ,-0.1 ,56.5 ,0.0 ,0.0 ,58.5 ,0.0 ,0.0 ,60.0 ,0.0 ,0.4 ,3.0 ,6.0 ,""
2011/12/23 13:00,57.2 ,0.0 ,-0.1 ,56.5 ,0.0 ,-0.1 ,58.5 ,0.0 ,0.0 ,60.0 ,0.0 ,0.4 ,3.0 ,6.0 ,""
2011/12/23 14:00,57.1 ,-0.1 ,0.1 ,56.5 ,0.0 ,0.0 ,58.5 ,0.0 ,0.1 ,60.0 ,0.0 ,0.5 ,3.0 ,6.0 ,""
2011/12/23 15:00,56.9 ,-0.2 ,-0.1 ,56.5 ,0.0 ,0.0 ,58.5 ,0.0 ,0.1 ,59.9 ,-0.1 ,0.2 ,3.0 ,6.0 ,""
2011/12/23 16:00,57.1 ,0.2 ,0.0 ,56.4 ,-0.1 ,-0.1 ,58.4 ,-0.1 ,-0.1 ,59.9 ,0.0 ,0.2 ,3.0 ,6.0 ,""
2011/12/23 17:00,57.3 ,0.2 ,0.0 ,56.4 ,0.0 ,-0.1 ,58.4 ,0.0 ,-0.1 ,59.9 ,0.0 ,0.1 ,3.0 ,6.0 ,""
2011/12/23 18:00,57.3 ,0.0 ,0.0 ,56.3 ,-0.1 ,-0.2 ,58.2 ,-0.2 ,-0.3 ,59.8 ,-0.1 ,0.0 ,3.0 ,6.0 ,""
2011/12/23 19:00,56.9 ,-0.4 ,-0.4 ,56.2 ,-0.1 ,-0.3 ,58.1 ,-0.1 ,-0.3 ,59.7 ,-0.1 ,0.0 ,3.0 ,6.0 ,""
2011/12/23 20:00,57.0 ,0.1 ,0.0 ,56.3 ,0.1 ,-0.2 ,58.2 ,0.1 ,-0.2 ,59.8 ,0.1 ,0.1 ,2.9 ,6.0 ,""
2011/12/23 21:00,56.6 ,-0.4 ,-0.7 ,56.2 ,-0.1 ,-0.4 ,58.0 ,-0.2 ,-0.5 ,59.6 ,-0.2 ,-0.2 ,2.9 ,6.0 ,""
2011/12/23 22:00,56.5 ,-0.1 ,-0.8 ,56.1 ,-0.1 ,-0.4 ,58.0 ,0.0 ,-0.5 ,59.6 ,0.0 ,-0.2 ,2.9 ,6.0 ,""
2011/12/23 23:00,57.0 ,0.5 ,-0.3 ,56.1 ,0.0 ,-0.4 ,58.0 ,0.0 ,-0.3 ,59.5 ,-0.1 ,-0.4 ,2.9 ,6.0 ,""
2011/12/24 0:00,56.9 ,-0.1 ,-0.3 ,56.0 ,-0.1 ,-0.4 ,57.9 ,-0.1 ,-0.4 ,59.6 ,0.1 ,-0.4 ,2.9 ,6.0 ,""
2011/12/24 1:00,56.9 ,0.0 ,-0.3 ,56.2 ,0.2 ,-0.3 ,58.1 ,0.2 ,-0.4 ,59.6 ,0.0 ,-0.4 ,2.9 ,6.0 ,""
2011/12/24 2:00,56.7 ,-0.2 ,-0.4 ,55.9 ,-0.3 ,-0.5 ,57.9 ,-0.2 ,-0.4 ,59.4 ,-0.2 ,-0.5 ,2.9 ,6.0 ,""
2011/12/24 3:00,56.6 ,-0.1 ,-0.3 ,55.9 ,0.0 ,-0.6 ,57.8 ,-0.1 ,-0.6 ,59.4 ,0.0 ,-0.5 ,2.9 ,6.0 ,""
2011/12/24 4:00,56.4 ,-0.2 ,-0.9 ,55.9 ,0.0 ,-0.5 ,57.9 ,0.1 ,-0.4 ,59.4 ,0.0 ,-0.5 ,2.9 ,6.0 ,""
2011/12/24 5:00,56.7 ,0.3 ,-0.7 ,55.8 ,-0.1 ,-0.6 ,57.7 ,-0.2 ,-0.6 ,59.3 ,-0.1 ,-0.7 ,2.9 ,6.0 ,""
2011/12/24 6:00,56.5 ,-0.2 ,-0.8 ,55.7 ,-0.1 ,-0.7 ,57.7 ,0.0 ,-0.7 ,59.3 ,0.0 ,-0.7 ,2.9 ,6.0 ,""
2011/12/24 7:00,56.7 ,0.2 ,-0.5 ,55.7 ,0.0 ,-0.7 ,57.7 ,0.0 ,-0.7 ,59.4 ,0.1 ,-0.6 ,2.9 ,6.0 ,""
2011/12/24 8:00,56.5 ,-0.2 ,-0.7 ,55.7 ,0.0 ,-0.7 ,57.6 ,-0.1 ,-0.7 ,59.2 ,-0.2 ,-0.7 ,2.9 ,6.0 ,""
2011/12/24 9:00,56.4 ,-0.1 ,-0.6 ,55.6 ,-0.1 ,-1.0 ,57.5 ,-0.1 ,-1.0 ,59.1 ,-0.1 ,-0.9 ,2.9 ,6.0 ,""
2011/12/24 10:00,56.1 ,-0.3 ,-0.8 ,55.6 ,0.0 ,-0.8 ,57.5 ,0.0 ,-0.9 ,59.0 ,-0.1 ,-1.0 ,2.9 ,6.0 ,""
2011/12/24 11:00,56.0 ,-0.1 ,-1.2 ,55.5 ,-0.1 ,-1.0 ,57.5 ,0.0 ,-1.0 ,59.0 ,0.0 ,-1.0 ,2.9 ,6.0 ,""
2011/12/24 12:00,56.4 ,0.4 ,-0.8 ,55.5 ,0.0 ,-1.0 ,57.5 ,0.0 ,-1.0 ,59.0 ,0.0 ,-1.0 ,2.9 ,6.0 ,""
2011/12/24 13:00,56.3 ,-0.1 ,-0.9 ,55.5 ,0.0 ,-1.0 ,57.4 ,-0.1 ,-1.1 ,59.1 ,0.1 ,-0.9 ,2.9 ,6.0 ,""
2011/12/24 14:00,56.3 ,0.0 ,-0.8 ,55.5 ,0.0 ,-1.0 ,57.4 ,0.0 ,-1.1 ,59.0 ,-0.1 ,-1.0 ,2.9 ,6.0 ,""
2011/12/24 15:00,56.3 ,0.0 ,-0.6 ,55.5 ,0.0 ,-1.0 ,57.4 ,0.0 ,-1.1 ,58.9 ,-0.1 ,-1.0 ,2.9 ,6.0 ,""
2011/12/24 16:00,56.0 ,-0.3 ,-1.1 ,55.5 ,0.0 ,-0.9 ,57.4 ,0.0 ,-1.0 ,59.0 ,0.1 ,-0.9 ,2.9 ,6.0 ,""
2011/12/24 17:00,56.2 ,0.2 ,-1.1 ,55.5 ,0.0 ,-0.9 ,57.4 ,0.0 ,-1.0 ,58.9 ,-0.1 ,-1.0 ,2.9 ,6.0 ,""
2011/12/24 18:00,56.5 ,0.3 ,-0.8 ,55.5 ,0.0 ,-0.8 ,57.5 ,0.1 ,-0.7 ,58.9 ,0.0 ,-0.9 ,2.9 ,6.0 ,""
2011/12/24 19:00,56.3 ,-0.2 ,-0.6 ,55.5 ,0.0 ,-0.7 ,57.3 ,-0.2 ,-0.8 ,58.9 ,0.0 ,-0.8 ,2.9 ,6.0 ,""
2011/12/24 20:00,56.4 ,0.1 ,-0.6 ,55.4 ,-0.1 ,-0.9 ,57.3 ,0.0 ,-0.9 ,58.9 ,0.0 ,-0.9 ,2.9 ,6.0 ,""
2011/12/24 21:00,56.1 ,-0.3 ,-0.5 ,55.4 ,0.0 ,-0.8 ,57.3 ,0.0 ,-0.7 ,58.9 ,0.0 ,-0.7 ,2.9 ,6.0 ,""
2011/12/24 22:00,55.8 ,-0.3 ,-0.7 ,55.4 ,0.0 ,-0.7 ,57.3 ,0.0 ,-0.7 ,58.8 ,-0.1 ,-0.8 ,2.9 ,6.0 ,""
2011/12/24 23:00,55.8 ,0.0 ,-1.2 ,55.3 ,-0.1 ,-0.8 ,57.3 ,0.0 ,-0.7 ,58.7 ,-0.1 ,-0.8 ,2.9 ,6.0 ,""
2011/12/25 0:00,56.1 ,0.3 ,-0.8 ,55.3 ,0.0 ,-0.7 ,57.2 ,-0.1 ,-0.7 ,58.7 ,0.0 ,-0.9 ,2.9 ,6.0 ,""
2011/12/25 1:00,56.2 ,0.1 ,-0.7 ,55.3 ,0.0 ,-0.9 ,57.2 ,0.0 ,-0.9 ,58.7 ,0.0 ,-0.9 ,2.9 ,6.0 ,""
2011/12/25 2:00,56.0 ,-0.2 ,-0.7 ,55.3 ,0.0 ,-0.6 ,57.1 ,-0.1 ,-0.8 ,58.7 ,0.0 ,-0.7 ,2.9 ,6.0 ,""
2011/12/25 3:00,56.0 ,0.0 ,-0.6 ,55.2 ,-0.1 ,-0.7 ,57.1 ,0.0 ,-0.7 ,58.9 ,0.2 ,-0.5 ,2.9 ,6.0 ,""
2011/12/25 4:00,55.9 ,-0.1 ,-0.5 ,55.2 ,0.0 ,-0.7 ,57.1 ,0.0 ,-0.8 ,58.9 ,0.0 ,-0.5 ,2.9 ,6.0 ,""
2011/12/25 5:00,55.6 ,-0.3 ,-1.1 ,55.2 ,0.0 ,-0.6 ,57.1 ,0.0 ,-0.6 ,58.8 ,-0.1 ,-0.5 ,2.9 ,6.0 ,""
2011/12/25 6:00,55.9 ,0.3 ,-0.6 ,55.1 ,-0.1 ,-0.6 ,56.9 ,-0.2 ,-0.8 ,58.7 ,-0.1 ,-0.6 ,2.9 ,6.0 ,""
2011/12/25 7:00,56.0 ,0.1 ,-0.7 ,55.0 ,-0.1 ,-0.7 ,57.0 ,0.1 ,-0.7 ,58.6 ,-0.1 ,-0.8 ,2.9 ,6.0 ,""
2011/12/25 8:00,56.0 ,0.0 ,-0.5 ,55.1 ,0.1 ,-0.6 ,57.0 ,0.0 ,-0.6 ,58.6 ,0.0 ,-0.6 ,2.8 ,6.0 ,""
2011/12/25 9:00,55.7 ,-0.3 ,-0.7 ,54.9 ,-0.2 ,-0.7 ,56.9 ,-0.1 ,-0.6 ,58.5 ,-0.1 ,-0.6 ,2.8 ,6.0 ,""
2011/12/25 10:00,55.8 ,0.1 ,-0.3 ,55.0 ,0.1 ,-0.6 ,56.9 ,0.0 ,-0.6 ,58.5 ,0.0 ,-0.5 ,2.8 ,6.0 ,""
2011/12/25 11:00,55.5 ,-0.3 ,-0.5 ,54.9 ,-0.1 ,-0.6 ,56.9 ,0.0 ,-0.6 ,58.5 ,0.0 ,-0.5 ,2.8 ,6.0 ,""
2011/12/25 12:00,55.5 ,0.0 ,-0.9 ,54.9 ,0.0 ,-0.6 ,56.9 ,0.0 ,-0.6 ,58.5 ,0.0 ,-0.5 ,2.8 ,6.0 ,""
2011/12/25 13:00,55.9 ,0.4 ,-0.4 ,55.0 ,0.1 ,-0.5 ,57.0 ,0.1 ,-0.4 ,58.5 ,0.0 ,-0.6 ,2.8 ,6.0 ,""
2011/12/25 14:00,55.6 ,-0.3 ,-0.7 ,54.9 ,-0.1 ,-0.6 ,56.8 ,-0.2 ,-0.6 ,58.4 ,-0.1 ,-0.6 ,2.8 ,6.0 ,""
2011/12/25 15:00,55.6 ,0.0 ,-0.7 ,54.8 ,-0.1 ,-0.7 ,56.8 ,0.0 ,-0.6 ,58.5 ,0.1 ,-0.4 ,2.8 ,6.0 ,""
2011/12/25 16:00,55.7 ,0.1 ,-0.3 ,54.9 ,0.1 ,-0.6 ,56.9 ,0.1 ,-0.5 ,58.5 ,0.0 ,-0.5 ,2.8 ,6.0 ,""
2011/12/25 17:00,55.4 ,-0.3 ,-0.8 ,54.9 ,0.0 ,-0.6 ,56.8 ,-0.1 ,-0.6 ,58.4 ,-0.1 ,-0.5 ,2.8 ,6.0 ,""
2011/12/25 18:00,55.4 ,0.0 ,-1.1 ,54.8 ,-0.1 ,-0.7 ,56.8 ,0.0 ,-0.7 ,58.4 ,0.0 ,-0.5 ,2.8 ,6.0 ,""
2011/12/25 19:00,55.7 ,0.3 ,-0.6 ,54.8 ,0.0 ,-0.7 ,56.8 ,0.0 ,-0.5 ,58.3 ,-0.1 ,-0.6 ,2.8 ,6.0 ,""
2011/12/25 20:00,55.7 ,0.0 ,-0.7 ,54.9 ,0.1 ,-0.5 ,56.9 ,0.1 ,-0.4 ,58.4 ,0.1 ,-0.5 ,2.8 ,6.0 ,""
2011/12/25 21:00,55.6 ,-0.1 ,-0.5 ,54.8 ,-0.1 ,-0.6 ,56.8 ,-0.1 ,-0.5 ,58.3 ,-0.1 ,-0.6 ,2.8 ,6.0 ,""
2011/12/25 22:00,55.5 ,-0.1 ,-0.3 ,54.7 ,-0.1 ,-0.7 ,56.7 ,-0.1 ,-0.6 ,58.2 ,-0.1 ,-0.6 ,2.8 ,6.0 ,""
2011/12/25 23:00,55.2 ,-0.3 ,-0.6 ,54.7 ,0.0 ,-0.6 ,56.7 ,0.0 ,-0.6 ,58.2 ,0.0 ,-0.5 ,2.8 ,6.0 ,""
2011/12/26 0:00,55.2 ,0.0 ,-0.9 ,54.8 ,0.1 ,-0.5 ,56.8 ,0.1 ,-0.4 ,58.2 ,0.0 ,-0.5 ,2.8 ,6.0 ,""
2011/12/26 1:00,55.1 ,-0.1 ,-1.1 ,54.7 ,-0.1 ,-0.6 ,56.7 ,-0.1 ,-0.5 ,58.1 ,-0.1 ,-0.6 ,2.8 ,6.0 ,""
2011/12/26 2:00,55.4 ,0.3 ,-0.6 ,54.6 ,-0.1 ,-0.7 ,56.5 ,-0.2 ,-0.6 ,58.1 ,0.0 ,-0.6 ,2.8 ,6.0 ,""
2011/12/26 3:00,55.4 ,0.0 ,-0.6 ,54.7 ,0.1 ,-0.5 ,56.7 ,0.2 ,-0.4 ,58.1 ,0.0 ,-0.8 ,2.8 ,6.0 ,""
2011/12/26 4:00,55.3 ,-0.1 ,-0.6 ,54.5 ,-0.2 ,-0.7 ,56.4 ,-0.3 ,-0.7 ,58.0 ,-0.1 ,-0.9 ,2.8 ,6.0 ,""
2011/12/26 5:00,55.2 ,-0.1 ,-0.4 ,54.6 ,0.1 ,-0.6 ,56.4 ,0.0 ,-0.7 ,58.0 ,0.0 ,-0.8 ,2.8 ,6.0 ,""
2011/12/26 6:00,55.3 ,0.1 ,-0.6 ,54.5 ,-0.1 ,-0.6 ,56.4 ,0.0 ,-0.5 ,57.9 ,-0.1 ,-0.8 ,2.8 ,6.0 ,""
2011/12/26 7:00,55.4 ,0.1 ,-0.6 ,54.5 ,0.0 ,-0.5 ,56.5 ,0.1 ,-0.5 ,57.9 ,0.0 ,-0.7 ,2.8 ,6.0 ,""
2011/12/26 8:00,55.4 ,0.0 ,-0.6 ,54.4 ,-0.1 ,-0.7 ,56.3 ,-0.2 ,-0.7 ,57.9 ,0.0 ,-0.7 ,2.8 ,6.0 ,""
2011/12/26 9:00,55.2 ,-0.2 ,-0.5 ,54.4 ,0.0 ,-0.5 ,56.4 ,0.1 ,-0.5 ,57.9 ,0.0 ,-0.6 ,2.8 ,6.0 ,""
2011/12/26 10:00,55.2 ,0.0 ,-0.6 ,54.4 ,0.0 ,-0.6 ,56.3 ,-0.1 ,-0.6 ,57.8 ,-0.1 ,-0.7 ,2.8 ,6.0 ,""
2011/12/26 11:00,55.1 ,-0.1 ,-0.4 ,54.4 ,0.0 ,-0.5 ,56.3 ,0.0 ,-0.6 ,57.8 ,0.0 ,-0.7 ,2.8 ,6.0 ,""
2011/12/26 12:00,55.1 ,0.0 ,-0.4 ,54.4 ,0.0 ,-0.5 ,56.4 ,0.1 ,-0.5 ,57.8 ,0.0 ,-0.7 ,2.8 ,6.0 ,""
2011/12/26 13:00,55.2 ,0.1 ,-0.7 ,54.2 ,-0.2 ,-0.8 ,56.2 ,-0.2 ,-0.8 ,57.7 ,-0.1 ,-0.8 ,2.8 ,6.0 ,""
2011/12/26 14:00,55.3 ,0.1 ,-0.3 ,54.3 ,0.1 ,-0.6 ,56.3 ,0.1 ,-0.5 ,57.8 ,0.1 ,-0.6 ,2.8 ,6.0 ,""
2011/12/26 15:00,55.1 ,-0.2 ,-0.5 ,54.3 ,0.0 ,-0.5 ,56.4 ,0.1 ,-0.4 ,57.8 ,0.0 ,-0.7 ,2.7 ,6.0 ,""
2011/12/26 16:00,55.1 ,0.0 ,-0.6 ,54.4 ,0.1 ,-0.5 ,56.4 ,0.0 ,-0.5 ,57.7 ,-0.1 ,-0.8 ,2.7 ,6.0 ,""
2011/12/26 17:00,55.1 ,0.0 ,-0.3 ,54.3 ,-0.1 ,-0.6 ,56.3 ,-0.1 ,-0.5 ,57.7 ,0.0 ,-0.7 ,2.7 ,6.0 ,""
2011/12/26 18:00,54.9 ,-0.2 ,-0.5 ,54.2 ,-0.1 ,-0.6 ,56.2 ,-0.1 ,-0.6 ,57.7 ,0.0 ,-0.7 ,2.7 ,6.0 ,""
2011/12/26 19:00,54.7 ,-0.2 ,-1.0 ,54.3 ,0.1 ,-0.5 ,56.3 ,0.1 ,-0.5 ,57.7 ,0.0 ,-0.6 ,2.7 ,6.0 ,""
2011/12/26 20:00,54.9 ,0.2 ,-0.8 ,54.2 ,-0.1 ,-0.7 ,56.2 ,-0.1 ,-0.7 ,57.8 ,0.1 ,-0.6 ,2.7 ,6.0 ,""
2011/12/26 21:00,54.6 ,-0.3 ,-1.0 ,54.2 ,0.0 ,-0.6 ,56.2 ,0.0 ,-0.6 ,57.7 ,-0.1 ,-0.6 ,2.7 ,6.0 ,""
2011/12/26 22:00,55.1 ,0.5 ,-0.4 ,54.2 ,0.0 ,-0.5 ,56.2 ,0.0 ,-0.5 ,57.8 ,0.1 ,-0.4 ,2.7 ,6.0 ,""
2011/12/26 23:00,54.9 ,-0.2 ,-0.3 ,54.1 ,-0.1 ,-0.6 ,56.1 ,-0.1 ,-0.6 ,57.7 ,-0.1 ,-0.5 ,2.7 ,6.0 ,""
2011/12/27 0:00,54.9 ,0.0 ,-0.3 ,54.1 ,0.0 ,-0.7 ,56.1 ,0.0 ,-0.7 ,57.7 ,0.0 ,-0.5 ,2.7 ,6.0 ,""
2011/12/27 1:00,54.8 ,-0.1 ,-0.3 ,54.0 ,-0.1 ,-0.7 ,56.0 ,-0.1 ,-0.7 ,57.6 ,-0.1 ,-0.5 ,2.7 ,6.0 ,""
2011/12/27 2:00,54.6 ,-0.2 ,-0.8 ,54.0 ,0.0 ,-0.6 ,55.9 ,-0.1 ,-0.6 ,57.6 ,0.0 ,-0.5 ,2.7 ,6.0 ,""
2011/12/27 3:00,54.5 ,-0.1 ,-0.9 ,54.0 ,0.0 ,-0.7 ,55.9 ,0.0 ,-0.8 ,57.5 ,-0.1 ,-0.6 ,2.7 ,6.0 ,""
2011/12/27 4:00,54.9 ,0.4 ,-0.4 ,53.9 ,-0.1 ,-0.6 ,56.0 ,0.1 ,-0.4 ,57.6 ,0.1 ,-0.4 ,2.7 ,6.0 ,""
2011/12/27 5:00,54.8 ,-0.1 ,-0.4 ,53.9 ,0.0 ,-0.7 ,55.8 ,-0.2 ,-0.6 ,57.5 ,-0.1 ,-0.5 ,2.7 ,6.0 ,""
2011/12/27 6:00,54.9 ,0.1 ,-0.4 ,53.9 ,0.0 ,-0.6 ,55.9 ,0.1 ,-0.5 ,57.4 ,-0.1 ,-0.5 ,2.7 ,6.0 ,""
2011/12/27 7:00,54.7 ,-0.2 ,-0.7 ,53.8 ,-0.1 ,-0.7 ,55.9 ,0.0 ,-0.6 ,57.3 ,-0.1 ,-0.6 ,2.7 ,6.0 ,""
2011/12/27 8:00,54.6 ,-0.1 ,-0.8 ,53.8 ,0.0 ,-0.6 ,55.8 ,-0.1 ,-0.5 ,57.4 ,0.1 ,-0.5 ,2.7 ,6.0 ,""
2011/12/27 9:00,54.4 ,-0.2 ,-0.8 ,53.8 ,0.0 ,-0.6 ,55.8 ,0.0 ,-0.6 ,57.3 ,-0.1 ,-0.6 ,2.7 ,6.0 ,""
2011/12/27 10:00,54.3 ,-0.1 ,-0.9 ,53.7 ,-0.1 ,-0.7 ,55.7 ,-0.1 ,-0.6 ,57.1 ,-0.2 ,-0.7 ,2.7 ,6.0 ,""
2011/12/27 11:00,54.8 ,0.5 ,-0.3 ,53.7 ,0.0 ,-0.7 ,55.7 ,0.0 ,-0.6 ,57.2 ,0.1 ,-0.6 ,2.0 ,7.0 ,""
2011/12/27 12:00,54.7 ,-0.1 ,-0.4 ,53.7 ,0.0 ,-0.7 ,55.6 ,-0.1 ,-0.8 ,57.2 ,0.0 ,-0.6 ,1.9 ,7.0 ,""
2011/12/27 13:00,54.5 ,-0.2 ,-0.7 ,53.7 ,0.0 ,-0.5 ,55.6 ,0.0 ,-0.6 ,57.1 ,-0.1 ,-0.6 ,1.9 ,7.0 ,""
2011/12/27 14:00,54.4 ,-0.1 ,-0.9 ,53.6 ,-0.1 ,-0.7 ,55.6 ,0.0 ,-0.7 ,57.0 ,-0.1 ,-0.8 ,1.9 ,7.0 ,""
2011/12/27 15:00,54.2 ,-0.2 ,-0.9 ,53.6 ,0.0 ,-0.7 ,55.5 ,-0.1 ,-0.9 ,57.0 ,0.0 ,-0.8 ,1.9 ,7.0 ,""
2011/12/27 16:00,54.2 ,0.0 ,-0.9 ,53.5 ,-0.1 ,-0.9 ,55.5 ,0.0 ,-0.9 ,56.9 ,-0.1 ,-0.8 ,1.9 ,7.0 ,""
2011/12/27 17:00,54.5 ,0.3 ,-0.6 ,53.5 ,0.0 ,-0.8 ,55.4 ,-0.1 ,-0.9 ,56.8 ,-0.1 ,-0.9 ,1.9 ,7.0 ,""
2011/12/27 18:00,54.2 ,-0.3 ,-0.7 ,53.4 ,-0.1 ,-0.8 ,55.3 ,-0.1 ,-0.9 ,56.8 ,0.0 ,-0.9 ,1.9 ,7.0 ,""
2011/12/27 19:00,54.2 ,0.0 ,-0.5 ,53.4 ,0.0 ,-0.9 ,55.3 ,0.0 ,-1.0 ,56.7 ,-0.1 ,-1.0 ,1.9 ,7.0 ,""
2011/12/27 20:00,54.2 ,0.0 ,-0.7 ,53.3 ,-0.1 ,-0.9 ,55.3 ,0.0 ,-0.9 ,56.6 ,-0.1 ,-1.2 ,1.9 ,7.0 ,""
2011/12/27 21:00,54.1 ,-0.1 ,-0.5 ,53.4 ,0.1 ,-0.8 ,55.2 ,-0.1 ,-1.0 ,56.6 ,0.0 ,-1.1 ,1.9 ,7.0 ,""
2011/12/27 22:00,53.8 ,-0.3 ,-1.3 ,53.3 ,-0.1 ,-0.9 ,55.2 ,0.0 ,-1.0 ,56.5 ,-0.1 ,-1.3 ,1.9 ,7.0 ,""
2011/12/27 23:00,53.7 ,-0.1 ,-1.2 ,53.2 ,-0.1 ,-0.9 ,55.1 ,-0.1 ,-1.0 ,56.5 ,0.0 ,-1.2 ,1.9 ,7.0 ,""
2011/12/28 0:00,54.2 ,0.5 ,-0.7 ,53.1 ,-0.1 ,-1.0 ,55.1 ,0.0 ,-1.0 ,56.5 ,0.0 ,-1.2 ,1.9 ,7.0 ,""
2011/12/28 1:00,53.8 ,-0.4 ,-1.0 ,53.1 ,0.0 ,-0.9 ,55.1 ,0.0 ,-0.9 ,56.4 ,-0.1 ,-1.2 ,1.9 ,7.0 ,""
2011/12/28 2:00,53.9 ,0.1 ,-0.7 ,53.0 ,-0.1 ,-1.0 ,54.9 ,-0.2 ,-1.0 ,56.3 ,-0.1 ,-1.3 ,1.9 ,7.0 ,""
2011/12/28 3:00,53.8 ,-0.1 ,-0.7 ,53.0 ,0.0 ,-1.0 ,55.0 ,0.1 ,-0.9 ,56.4 ,0.1 ,-1.1 ,1.9 ,7.0 ,""
2011/12/28 4:00,53.6 ,-0.2 ,-1.3 ,52.9 ,-0.1 ,-1.0 ,54.9 ,-0.1 ,-1.1 ,56.3 ,-0.1 ,-1.3 ,1.9 ,7.0 ,""
2011/12/28 5:00,53.5 ,-0.1 ,-1.3 ,52.8 ,-0.1 ,-1.1 ,54.8 ,-0.1 ,-1.0 ,56.1 ,-0.2 ,-1.4 ,1.9 ,7.0 ,""
2011/12/28 6:00,53.5 ,0.0 ,-1.4 ,52.8 ,0.0 ,-1.1 ,54.7 ,-0.1 ,-1.2 ,56.1 ,0.0 ,-1.3 ,1.9 ,7.0 ,""
2011/12/28 7:00,53.8 ,0.3 ,-0.9 ,52.8 ,0.0 ,-1.0 ,54.7 ,0.0 ,-1.2 ,56.1 ,0.0 ,-1.2 ,1.8 ,7.0 ,""
2011/12/28 8:00,53.6 ,-0.2 ,-1.0 ,52.7 ,-0.1 ,-1.1 ,54.6 ,-0.1 ,-1.2 ,56.0 ,-0.1 ,-1.4 ,1.8 ,7.0 ,""
2011/12/28 9:00,53.6 ,0.0 ,-0.8 ,52.7 ,0.0 ,-1.1 ,54.5 ,-0.1 ,-1.3 ,56.0 ,0.0 ,-1.3 ,1.8 ,7.0 ,""
2011/12/28 10:00,53.4 ,-0.2 ,-0.9 ,52.6 ,-0.1 ,-1.1 ,54.5 ,0.0 ,-1.2 ,56.0 ,0.0 ,-1.1 ,1.8 ,7.0 ,""
2011/12/28 11:00,53.2 ,-0.2 ,-1.6 ,52.6 ,0.0 ,-1.1 ,54.5 ,0.0 ,-1.2 ,55.9 ,-0.1 ,-1.3 ,1.8 ,7.0 ,""
2011/12/28 12:00,53.6 ,0.4 ,-1.1 ,52.6 ,0.0 ,-1.1 ,54.5 ,0.0 ,-1.1 ,55.9 ,0.0 ,-1.3 ,1.8 ,7.0 ,""
2011/12/28 13:00,53.5 ,-0.1 ,-1.0 ,52.6 ,0.0 ,-1.1 ,54.5 ,0.0 ,-1.1 ,55.9 ,0.0 ,-1.2 ,1.8 ,7.0 ,""
2011/12/28 14:00,53.5 ,0.0 ,-0.9 ,52.6 ,0.0 ,-1.0 ,54.5 ,0.0 ,-1.1 ,55.8 ,-0.1 ,-1.2 ,1.8 ,7.0 ,""
2011/12/28 15:00,53.5 ,0.0 ,-0.7 ,52.6 ,0.0 ,-1.0 ,54.4 ,-0.1 ,-1.1 ,55.8 ,0.0 ,-1.2 ,1.8 ,7.0 ,""
2011/12/28 16:00,53.1 ,-0.4 ,-1.1 ,52.6 ,0.0 ,-0.9 ,54.4 ,0.0 ,-1.1 ,55.8 ,0.0 ,-1.1 ,1.8 ,7.0 ,""
2011/12/28 17:00,53.2 ,0.1 ,-1.3 ,52.7 ,0.1 ,-0.8 ,54.4 ,0.0 ,-1.0 ,55.8 ,0.0 ,-1.0 ,1.8 ,7.0 ,""